Location: Karaa?a�
(36.7158°N, 30.4165°E)
Time: 01:19:52
(UTC+00:00)

Cosmos 1300 - Pass Details

Date: 09 April 2020
Orbit: 511 x 515 km, 82.5° (Epoch: 06 June)

Event Time Altitude Azimuth Distance (km) Brightness Sun altitude
Exits shadow 18:42:35 24° 238° (WSW) 1,088 4.5 -25.8°
Maximum altitude 18:44:05 33° 281° (W) 874 4.3 -26.0°
Drops below altitude 10° 18:47:35 10° 347° (NNW) 1,745 5.9 -26.6°
Sets 18:49:53 0° 357° (N) 2,637 6.8 -27.0°
